BADR-6

Last updated on Dec. 5, 2020, 6:14 a.m. UTC

1 33154U 08034B   20339.75627427  .00000160  00000-0  00000-0 0  9995
2 33154   0.0602  40.1083 0002501 251.3564  80.8369  1.00269391 45493
UTC
Height (km)
Latitude
Longitude
Inclination
Orbital Period
UTC large
Height (km)
Speed (km/s)
/
Latitude / Longitude
Inclination (degrees)
Orbital Period (minutes)
Azimuth
Elevation
Range (km)
Doppler Factor
iOS Compass Heading
iOS Angle

Next 30 passes for location: Hong Kong

Rise time Rise Azimuth (degrees) Set time Set Azimuth (degrees) Duration Max altitude (degrees)

No matching passes for this satellites